Location: Spruce Knob
(38.6995°N, 79.5330°W)
Time: 20:54:00
(UTC-05:00)

Explorer 7 - Visible Passes

Search period start: 27 January 2022 00:00
Search period end: 06 February 2022 00:00
Orbit: 483 x 674 km, 50.3° (Epoch: 27 January)

Date Brightness Start Highest point End Pass type
(mag) Time Alt. Az. Time Alt. Az. Time Alt. Az.
31 Jan 9.6 06:05:34 10° SSE 06:07:56 16° SE 06:10:20 10° E visible
01 Feb 8.8 06:08:20 10° SSW 06:11:33 27° SE 06:14:54 10° ENE visible
02 Feb 7.6 06:11:38 10° SSW 06:15:15 46° SE 06:19:02 10° ENE visible
03 Feb 6.7 06:15:16 10° SW 06:19:02 81° SE 06:22:58 10° NE visible
04 Feb 9.3 04:43:31 16° ESE 04:43:31 16° ESE 04:45:23 10° E visible
04 Feb 6.7 06:19:49 15° WSW 06:22:54 62° NNW 06:26:48 10° NE visible
05 Feb 9.0 04:47:52 23° E 04:47:52 23° E 04:49:51 10° ENE visible
05 Feb 7.2 06:24:09 16° W 06:26:48 40° NNW 06:30:32 10° NE visible
